www.pogodaiklimat.ru

Погода и климат >> Архив погоды >> Гондурас >> Choluteca


ПОГОДА в Choluteca

  • Прогноз погоды в Choluteca
  • Монитор погоды в Choluteca
  • Климат города

АРХИВ ПОГОДЫ в Choluteca

Время (UTC), дата Ветер
(напр.,м/с)
 
Видим.   Явления Облачность Т
(С)
Тd
(С)
f
(%)
Тe
(С)
Тes
(С)
Комфортность P
(гПа)
Po
(гПа)
Тmin
(С)
Tmax
(С)
R
(мм)
R24
(мм)
S
(см)
18 16.10 СВ 14 20 км мгла {туман} 9/1 900 м
[Cu hum Cs]
+34.1 +24.3 57 +47 +47 опасность
перегрева
1012.0 1004.5 +24.6 +34.1
21 16.10 СВ 7 20 км мгла {туман} 9/3 900 м
[Cu hum Cs]
+36.0 +24.4 51 +48 +49 опасность
перегрева
1008.0 1000.5
00 17.10 штиль 0 20 км мгла {туман} 9/1 900 м
[Cu hum Cs]
+30.4 +23.0 65 +41 +41 опасность
перегрева
1008.7 1001.2 +23.4 +36.0
12 17.10 штиль 0 20 км мгла 9/1 720 м
[Sc Ac trans Ci fib]
+24.0 +23.2 95 +32 +32 очень
душно
1011.6 1004.1 +24.0 +36.0
15 17.10 В 2 20 км мгла {туман} 3/1 840 м
[Cu hum Ac trans Ci fib]
+31.8 +26.8 75 +49 +57 опасность
перегрева
1012.8 1005.3
18 17.10 СВ 6 20 км мгла {туман} 5/3 700 м
[Cu med, cong Ac trans Ci fib]
+34.0 +23.7 55 +45 +49 опасность
перегрева
1010.6 1003.1 +24.0 +34.8
21 17.10 СВ 2 20 км мгла {туман} 9/4 900 м
[Cu med, cong Ac trans Ci]
+34.7 +27.2 65 +53 +56 опасность
перегрева
1008.7 1001.2
00 18.10 штиль 0 20 км мгла {туман} 6/4 840 м
[Cb cap Ac cuf Ci ing]
+29.0 +25.1 80 +42 +42 опасность
перегрева
1009.8 1002.3 +24.0 +35.0
12 18.10 С 5 20 км мгла {туман} 8/3 720 м
[Sc Ac trans Cs]
+26.2 +22.6 81 +35 +35 очень
душно
1011.1 1003.6 +26.2 +35.0
15 18.10 С 9 10 км мгла {туман} 9/1 900 м
[Cu hum Ac trans Cs]
+31.2 +23.6 64 +42 +43 опасность
перегрева
1012.5 1005.0
18 18.10 С 9 10 км мгла {туман} 9/3 900 м
[Cu hum Ac trans Cs]
+33.8 +25.2 61 +48 +49 опасность
перегрева
1011.5 1004.0 +26.2 +33.8
21 18.10 В 4 10 км мгла {туман} 9/3 900 м
[Cu med, cong Ac trans Cs]
+34.2 +27.3 67 +53 +55 опасность
перегрева
1009.7 1002.2
00 19.10 В 1 10 км мгла {туман} 9/3 840 м
[Cb cap Ac cuf Ci ing]
+30.2 +26.0 78 +45 +45 опасность
перегрева
1010.5 1003.0 +26.2 +34.5
12 19.10 штиль 0 20 км мгла 6/1 720 м
[Sc Ac trans Ci]
+23.9 +23.1 95 +32 +32 очень
душно
1010.8 1003.3 +23.9 +34.5
15 19.10 В 6 20 км мгла {туман} 9/4 900 м
[Cu hum Ci]
+31.0 +23.7 65 +42 +44 опасность
перегрева
1012.2 1004.7
18 19.10 В 7 20 км мгла {туман} 9/3 900 м
[Cb cap Ac cuf Ci ing]
+32.5 +26.3 70 +49 +51 опасность
перегрева
1011.1 1003.6 +23.9 +33.0
21 19.10 СВ 7 20 км мгла {туман} 9/3 900 м
[Cu med, cong Ac und Ci fib]
+31.0 +25.3 72 +45 +46 опасность
перегрева
1009.4 1001.9
00 20.10 СВ 2 20 км мгла {туман} 9/3 900 м
[Sc Ac und Ci fib]
+29.7 +25.4 78 +44 +44 опасность
перегрева
1010.1 1002.4 +23.0 +33.0
12 20.10 штиль 0 10 км дымка 6/1 660 м
[Sc Ac trans Ci]
+23.0 +23.0 100 +32 +32 очень
душно
1010.7 1003.2 +23.0 +33.0
15 20.10 СВ 6 20 км мгла {туман} 5/1 900 м
[Cu hum Ci]
+31.6 +23.7 63 +43 +46 опасность
перегрева
1012.2 1004.7
18 20.10 С 6 20 км мгла {туман} 6/6 960 м
[Cu med, cong]
+34.3 +23.4 53 +45 +48 опасность
перегрева
1009.0 1003.3 +23.0 +34.8
21 20.10 В 4 2000 м гроза, ливневой дождь 9/6 900 м
[Cb cap As op]
+24.0 +23.2 95 +32 +33 очень
душно
1007.7 1002.0 9
00 21.10 штиль 0 20 км гроза без осадков {дождь} 9/5 600 м
[Cb cap Ac As]
+24.7 +23.6 94 +34 +34 очень
душно
1008.3 1002.6 +23.0 +36.4 2
15 21.10 СВ 3 25 км мгла {туман} 6/3 900 м
[Cu hum Ac trans Ci fib]
+30.6 +23.5 66 +41 +46 опасность
перегрева
1011.1 1005.4
18 21.10 СВ 6 25 км мгла {туман} 5/5 960 м
[Cu med, cong Ci fib]
+34.0 +23.3 54 +45 +48 опасность
перегрева
1008.3 1002.6 +23.2 +34.0
21 21.10 Ю 2 25 км мгла {туман} 8/5 1020 м
[Cb cap Ci sp]
+34.2 +25.0 59 +48 +51 опасность
перегрева
1007.7 1002.0
00 22.10 штиль 0 25 км мгла {туман} 9/5 960 м
[Cb cap Ac trans Ci sp]
+30.0 +24.6 73 +43 +43 опасность
перегрева
1003.1 1002.4 +23.2 +36.0
12 22.10 штиль 0 10 км дымка 9/4 180 м
[Cu med, cong Cs]
+23.6 +23.6 100 +32 +32 очень
душно
1010.9 1003.4 +23.6 +36.0
15 22.10 СВ 3 15 км мгла {туман} 9/4 840 м
[Cu med, cong Cs]
+29.4 +25.4 79 +43 +47 опасность
перегрева
1013.8 1007.0
18 22.10 СВ 5 15 км гроза без осадков {туман} 9/5 900 м
[Cb cap Ac trans Cs]
+34.2 +26.6 65 +51 +54 опасность
перегрева
1009.9 1004.2 +23.6 +34.2
21 22.10 В 4 15 км мгла {туман} 9/8 900 м
[Cb cap Ac trans Cs]
+33.4 +24.6 60 +46 +47 опасность
перегрева
1006.7 1001.0
00 23.10 штиль 0 15 км мгла {гроза, туман} 9/5 900 м
[Cb cap Ac trans Cs]
+29.4 +26.5 84 +45 +45 опасность
перегрева
1006.7 1001.0 +23.6 +34.2
12 23.10 СВ 1 15 км мгла 9/1 840 м
[Sc Ac trans Cs]
+23.8 +23.5 98 +32 +32 очень
душно
1008.9 1008.2 +23.8 +34.2
15 23.10 СВ 5 15 км мгла {туман} 9/4 900 м
[Cu hum Ac trans Cs]
+29.4 +25.1 78 +43 +44 опасность
перегрева
1009.8 1004.1

 

Местоположение метеостанции Choluteca (Гондурас): широта 13.30 долгота -87.18 высота над уровнем моря 48 м.

В архиве по умолчанию представлена погода в Choluteca за последнюю неделю. Архивные данные за месяц целиком и за предыдущие месяцы, начиная с января 2011 года, Вы можете получить, выбрав интересующий диапазон дат из раскрывающегося списка и нажав кнопку "Ввод!".

Внимание! Время в таблицах - всемирное. Для получения местного времени необходимо прибавить поправку, которая в Choluteca равна -6 ч.

Смотрите также архив погоды в соседних городах и на ближайших метеорологических станциях:

Погода в Amapala (Гондурас) (51 км)
Погода в Chinandega (Никарагуа) (75 км)
Погода в Tegucigalpa (Гондурас) (83 км)
Погода в Jinotega (Никарагуа) (132 км)
Погода в La Esperanza (Гондурас) (155 км)
Погода в Managua (Никарагуа) (168 км)
Погода в Yoro (Гондурас) (208 км)
Погода в Catacamas (Гондурас) (223 км)
Погода в Juigalpa (Никарагуа) (237 км)
Погода в Santa Rosa De Copan (Гондурас) (239 км)

Пояснения к столбцам:

Ветер - указаны скорость ветра в м/с - средняя за 10 мин, порывы в срок и между сроками (в фигурных скобках) и направление, откуда дует ветер: С - северный, СВ - северо-восточный, В - восточный, ЮВ - юго-восточный, Ю - южный, ЮЗ - юго-западный, З - западный, СЗ - северо-западный.
Видимость - горизонтальная дальность видимости в метрах или километрах. При видимости от 1 до 10 км при отсутствии осадков обычно наблюдается дымка, при ухудшении видимости до 1 км и менее - туман. В сухую погоду видимость может ухудшаться дымом, пылью или мглою.
Явления - указаны атмосферные явления, наблюдавшиеся в срок или в последний час перед сроком; фигурными скобками обозначены явления, наблюдавшиеся между сроками (за 1-3 часа до срока); квадратными скобками обозначены град или гололедные отложения с указанием их диаметра в мм.
Облачность - указаны через наклонную черту общая и нижняя облачность в баллах и высота нижней границы облаков в метрах; квадратными скобками обозначены формы облаков: Ci - перистые, Cs - перисто-слоистые, Cc - перисто-кучевые, Ac - высококучевые, As - высокослоистые, Sc - слоисто-кучевые, Ns - слоисто-дождевые, Cu - кучевые, Cb - кучево-дождевые. Подробнее классификацию облаков см. в Атласе облаков (PDF).
T - Температура воздуха - температура, измеренная на высоте 2 м над землей.
Td - Температура точки росы - температура, при понижении до которой содержащийся в воздухе водяной пар достигнет насыщения.
f - Относительная влажность воздуха - влажноcть воздуха, измеренная на высоте 2 м над землей.
Te - Эффективная температура - температура, которую ощущает одетый по сезону человек в тени. Характеристика душности погоды. При расчете учитывается влияние влажности воздуха и скорости ветра на теплоощущения человека.
Tes - Эффективная температура на солнце - температура, которую ощущает человек, с поправкой на солнечный нагрев. Характеристика знойности погоды. Зависит от высоты солнца над горизонтом, облачности и скорости ветра. Ночью, в пасмурную погоду, а также при ветре 12 м/с и более поправка равна нулю.
P - Атмосферное давление - приведенное к уровню моря атмосферное давление.
Po - Атмосферное давление - измеренное на уровне метеостанции атмосферное давление.
Tmin - Минимальная температура - минимум температуры воздуха на высоте 2 м над землей.
Tmax - Максимальная температура - максимум температуры воздуха на высоте 2 м над землей.
R - Количество осадков - Количество выпавших осадков за период времени, мм. При наведении курсора мыши на число - период времени, за который выпало указанное количество осадков.
R24 - Количество осадков - Количество выпавших осадков за 24 часа, мм.
S - Снежный покров - Высота снежного покрова, см. При наведении курсора мыши на число - состояние снежного покрова и степень покрытия местности в баллах.